Probability
0 0 0 0 0 0 0 0 0 0 0 0 0 0 0 0 0 0 0 0 0 0 0 0 0 0 0 0 0 0 0 0 0 0 0 0 0 0 0 0 0 0 0 1 2 3 4 3 2
1 0 0 0 0 0 0 0 0 0 0 0 0 0 0 0 0 0 0 0 0 0 0 0 0 0 0 0 0 0 0 0 0 0 0 0 0 0 0 0 0 0 0 0 1 2 3 3 1
2 1 0 0 0 0 0 0 0 0 0 0 0 0 0 0 0 0 0 0 0 0 0 0 0 0 0 0 0 0 0 0 0 0 0 0 0 0 0 0 0 0 0 0 0 1 1 1 1
3 1 0 0 0 0 0 0 0 0 0 0 0 0 0 0 0 0 0 0 0 0 0 0 0 0 0 0 0 0 0 0 0 0 0 0 0 0 0 0 0 0 0 1 0 0 0 0 0
3 1 0 0 0 0 0 0 0 0 0 0 0 0 0 0 0 0 0 0 0 0 0 0 0 0 0 0 0 0 0 0 0 0 0 0 0 0 0 0 0 0 0 1 1 1 0 0 0
3 1 0 0 0 0 0 0 0 0 0 0 0 0 0 0 0 0 0 0 0 0 0 0 0 0 0 0 0 0 0 0 0 0 0 0 0 0 0 0 0 0 0 0 1 2 1 1 1
2 1 0 0 0 0 0 0 0 0 0 0 0 0 0 0 0 0 0 0 0 0 0 0 0 0 0 0 0 0 0 0 0 0 0 0 0 0 0 0 0 0 0 0 1 2 3 3 3
1 0 0 0 0 0 0 0 0 0 0 0 0 0 0 0 0 0 0 0 0 0 0 0 0 0 0 0 0 0 0 0 0 0 0 0 0 0 0 0 0 0 0 0 0 1 2 3 4
0 0 0 0 0 0 0 0 0 0 0 0 0 0 0 0 0 0 0 0 0 0 0 0 0 0 0 0 0 0 0 0 0 0 0 0 0 0 0 0 0 0 0 0 0 0 1 2 3
0 0 0 0 0 0 0 0 0 0 0 0 0 0 0 0 0 0 0 0 0 0 0 0 0 0 0 0 0 0 0 0 0 0 0 0 0 0 0 0 0 0 0 0 0 0 0 1 3
0 0 0 0 0 0 0 0 0 0 0 0 0 0 0 0 0 0 0 0 0 0 0 0 0 0 0 0 0 0 0 0 0 0 0 0 0 0 0 0 0 0 0 0 0 0 0 0 1
0 0 0 0 0 0 0 0 0 0 0 0 0 0 0 0 0 0 1 1 0 0 0 0 0 0 0 0 0 0 0 0 0 0 0 0 0 0 0 0 0 0 0 0 0 0 0 0 0
0 0 0 0 0 0 0 0 0 0 0 0 0 0 0 0 0 0 1 1 1 1 1 0 0 0 0 0 0 0 0 0 0 0 0 0 0 0 0 0 0 0 0 0 0 0 0 0 0
0 0 0 0 0 0 0 0 0 0 0 0 0 0 0 0 0 0 1 1 2 2 2 1 0 0 0 0 0 0 0 0 0 0 0 0 0 0 0 0 0 0 0 0 0 0 0 0 0
0 0 0 0 0 0 0 0 0 0 0 0 0 0 0 0 0 0 0 1 2 3 3 2 1 0 0 0 0 0 0 0 0 0 0 0 0 0 0 0 0 0 0 0 0 0 0 0 0
0 0 0 0 0 0 0 0 0 0 0 0 0 0 0 0 0 0 0 1 2 3 3 3 1 0 0 0 0 0 0 0 0 0 0 0 0 0 0 0 0 0 0 0 0 0 0 0 0
0 0 0 0 0 0 0 0 0 0 0 0 0 0 0 0 0 0 0 1 2 3 3 3 2 1 0 0 0 0 0 0 0 0 0 0 0 0 0 0 0 0 0 0 0 0 0 0 0
0 0 0 0 0 0 0 0 0 0 0 0 0 0 0 0 0 0 0 1 3 3 3 3 2 1 0 0 0 0 0 0 0 0 0 0 0 0 0 0 0 0 0 0 0 0 0 0 0
0 0 0 0 0 0 0 0 0 0 0 0 0 0 0 0 0 0 1 2 3 3 3 3 2 1 0 0 0 0 0 0 0 0 0 0 0 0 0 0 0 0 0 0 0 0 0 0 0
0 0 0 0 0 0 0 0 0 0 0 0 0 0 0 0 0 0 1 2 3 3 3 3 2 1 0 0 1 0 0 0 0 0 0 0 0 0 0 0 0 0 0 0 0 0 0 0 0
0 0 0 0 0 0 0 0 0 0 0 0 0 0 0 0 0 0 0 1 3 3 3 3 2 1 0 0 0 0 0 0 0 0 0 0 0 0 0 0 0 0 0 0 0 0 0 0 0
0 0 0 0 0 0 0 0 0 0 0 0 0 0 0 0 0 0 0 1 2 3 3 3 2 1 0 0 0 0 0 0 0 0 0 0 0 0 0 0 0 0 0 0 0 0 0 0 0
0 0 0 0 0 0 0 0 0 0 0 0 0 0 0 0 0 0 0 0 1 2 3 3 2 1 0 0 0 0 0 0 0 0 0 0 0 0 0 0 0 0 0 0 0 0 0 0 0
0 0 0 0 0 0 0 0 0 0 0 0 0 0 0 0 0 0 0 0 0 1 3 3 2 1 0 0 0 0 0 0 0 0 0 0 0 0 0 0 0 0 0 0 0 0 0 0 0
0 0 0 0 0 0 0 0 0 0 0 0 0 0 0 0 0 0 0 0 0 1 2 3 3 1 0 0 0 0 0 0 0 0 0 0 0 0 0 0 0 0 0 0 0 0 0 0 0
0 0 0 0 0 0 0 0 0 0 0 0 0 0 0 0 0 0 0 0 0 0 1 3 3 2 1 0 0 0 0 0 0 0 0 0 0 0 0 0 0 0 0 0 0 0 0 0 0
0 0 0 0 0 0 0 0 0 0 0 0 0 0 0 0 0 0 0 0 0 0 1 2 3 2 1 0 0 0 0 0 0 0 0 0 0 0 0 0 0 0 0 0 0 0 0 0 0
0 0 0 0 0 0 0 0 0 0 0 0 0 0 0 0 0 0 0 0 0 0 0 1 2 2 1 0 0 0 0 0 0 0 0 0 0 0 0 0 0 0 0 0 0 0 0 0 0
0 0 0 0 0 0 0 0 0 0 0 0 0 0 0 0 0 0 0 0 0 0 0 0 1 1 0 0 0 0 0 0 0 0 0 0 0 0 0 0 0 0 0 0 0 0 0 0 0
0 0 0 0 0 0 0 0 0 0 0 0 0 0 0 0 0 0 0 0 0 0 0 0 0 0 0 0 0 0 0 0 0 0 0 0 0 0 0 0 0 0 0 0 0 0 0 0 0
Wind_Speed
5 3 2 3 4 1 3 3 2 3 3 4 4 4 5 6 6 6 6 6 7 9 9 9 8 8 8 8 8 8 7 7 6 6 5 5 4 3 2 2 1 1 1 1 1 2 2 2 2
4 2 3 3 3 2 3 2 2 4 5 4 4 4 5 7 6 7 7 7 8 8 8 8 9 8 8 8 8 7 7 7 6 6 5 5 4 4 3 3 2 2 2 2 2 2 2 3 3
3 3 3 2 0 2 4 3 3 5 4 2 3 4 5 6 5 6 8 9 9 8 8 9 8 8 8 8 8 7 7 6 5 5 5 5 4 4 4 4 4 3 3 3 3 3 3 3 3
3 3 3 2 2 3 3 4 3 4 3 2 3 6 6 5 4 8 10 10 9 8 8 10 8 8 8 7 7 7 6 5 5 5 5 4 4 4 4 4 4 4 4 4 4 4 4 3 4
3 3 3 1 3 3 2 3 3 3 2 2 3 6 7 6 8 11 10 9 9 9 8 9 8 7 7 7 7 6 6 5 5 5 5 5 4 4 4 4 5 4 4 4 4 4 4 4 4
2 3 2 1 3 3 3 3 3 3 3 3 4 5 7 8 10 10 10 8 8 8 7 8 9 6 6 6 6 6 5 5 5 5 5 4 4 5 5 5 5 5 4 4 4 5 4 4 4
3 2 1 1 2 4 4 2 2 2 2 3 2 5 8 9 9 9 9 8 8 7 6 5 7 7 6 5 5 5 4 4 4 4 4 4 5 5 5 5 5 5 5 5 5 5 5 5 5
3 3 2 1 2 4 3 2 1 1 3 3 1 3 7 11 11 10 8 8 7 6 6 5 4 4 4 5 6 4 4 4 4 4 4 4 2 1 2 4 4 5 5 5 5 5 5 5 4
3 3 2 1 2 4 3 3 3 1 3 3 2 3 7 13 13 11 9 8 7 6 5 5 4 3 3 2 4 3 3 2 1 1 2 3 3 4 2 5 5 5 5 5 5 5 5 6 5
3 2 2 2 2 2 2 2 2 3 3 3 4 6 10 13 12 11 10 9 8 7 6 4 4 3 2 1 2 0 0 1 2 3 3 3 3 3 5 2 2 3 4 4 3 4 6 8 4
3 1 2 2 2 0 2 2 2 3 2 2 5 9 11 12 11 10 9 7 6 6 5 4 3 3 2 1 0 1 1 1 1 3 3 3 3 2 3 3 1 2 4 4 2 5 4 4 3
2 2 2 2 1 1 1 2 1 2 1 3 4 8 11 12 11 10 8 7 6 5 4 4 4 3 2 1 1 0 1 1 2 2 4 3 3 3 3 3 4 3 3 4 5 4 4 5 4
4 3 2 1 1 1 2 2 1 1 1 3 6 8 10 10 10 9 7 7 6 6 5 4 4 3 2 1 1 1 1 2 2 2 3 4 3 4 3 3 3 4 4 4 4 5 4 5 5
3 3 2 1 1 1 2 2 2 2 3 4 7 8 9 9 9 8 8 8 7 6 5 5 4 3 3 2 2 0 1 0 2 2 3 4 3 3 4 4 3 4 4 5 5 5 4 5 4
4 4 4 2 1 0 3 3 3 2 3 4 6 7 8 9 9 9 8 8 7 6 6 6 4 4 3 2 1 0 1 1 2 2 3 3 3 4 4 4 4 4 4 5 5 5 4 4 4
5 5 4 3 1 0 4 3 4 2 3 4 5 6 7 8 10 9 8 7 7 7 6 6 5 5 4 2 2 1 0 1 2 2 2 4 4 4 4 4 4 4 4 4 4 4 4 4 3
5 5 4 5 2 1 2 1 3 1 2 4 5 6 7 7 9 8 8 8 7 7 7 6 6 5 4 3 2 1 1 1 2 2 2 3 4 5 4 4 4 5 4 4 4 3 4 4 3
6 4 4 4 3 1 1 1 3 1 2 3 3 4 5 6 6 7 7 7 7 8 7 7 6 5 5 3 2 1 1 1 1 1 2 3 3 4 5 3 4 5 4 4 4 4 4 3 3
3 4 5 4 2 1 1 1 2 2 2 1 2 3 3 4 3 4 6 7 8 8 8 8 7 7 5 3 2 2 1 1 1 1 2 2 3 4 4 4 4 4 3 4 5 4 4 3 2
4 5 6 5 2 0 1 3 4 5 3 2 1 1 1 1 2 3 5 7 9 9 9 8 8 7 6 3 2 1 1 1 1 1 1 2 3 3 4 4 3 3 3 4 4 4 4 2 2
4 4 4 4 3 3 2 8 8 7 6 5 4 3 3 2 1 2 4 6 7 8 9 7 7 7 6 5 3 2 2 2 2 2 1 2 3 3 4 4 4 4 3 3 4 4 4 3 2
5 3 2 3 4 4 1 8 9 7 8 8 7 5 4 3 1 1 3 4 6 7 7 8 7 7 6 6 4 4 3 2 2 2 1 2 2 3 3 4 4 4 3 3 3 3 3 4 2
4 2 2 2 4 5 3 6 8 7 8 9 9 8 6 5 3 1 1 2 3 5 6 6 6 6 6 5 4 5 3 2 2 2 2 3 2 2 3 3 3 3 3 3 3 3 4 3 3
4 5 5 4 5 6 4 4 8 7 9 9 9 9 9 7 5 3 2 1 1 3 5 6 6 6 6 6 6 6 4 3 3 3 2 2 1 2 2 3 3 3 3 3 3 3 3 3 3
5 5 5 6 5 6 3 4 8 9 9 9 10 10 9 8 6 5 4 2 1 2 4 6 7 6 6 7 6 6 5 5 5 4 3 3 2 2 2 2 3 3 3 3 3 3 3 2 2
2 4 1 4 5 6 4 6 8 8 7 7 8 9 9 9 8 7 5 3 2 1 2 5 5 5 6 6 6 5 5 4 4 4 4 4 3 3 3 3 3 3 3 3 2 3 2 2 2
2 2 4 2 4 4 6 7 7 7 9 10 10 11 11 10 9 8 7 5 4 2 0 3 4 4 5 6 6 6 5 5 5 5 5 4 4 3 4 4 3 3 3 3 3 2 2 2 2
4 2 2 3 4 5 6 5 3 6 8 9 11 11 11 10 9 9 8 7 5 4 2 0 2 4 4 5 5 4 5 6 5 6 5 5 5 4 5 5 4 4 3 3 3 2 2 3 2
3 3 1 1 1 2 5 5 5 5 6 7 9 9 9 9 9 9 8 7 6 5 4 2 1 2 3 4 5 5 5 6 6 6 6 6 6 5 6 5 5 4 4 4 3 4 3 4 3
2 1 2 1 3 0 1 6 5 5 5 6 7 8 9 9 8 8 8 7 6 5 4 3 2 2 2 4 4 5 5 5 6 6 6 6 6 6 6 6 6 5 5 5 5 4 4 4 4
Wind_Direction
183 185 232 251 234 188 81 72 74 93 82 72 64 60 58 42 22 56 95 121 122 125 124 127 117 113 109 107 104 99 94 89 84 79 76 72 69 59 45 29 16 347 294 298 344 335 341 348 351
176 193 235 245 250 133 97 82 83 65 90 108 92 75 71 68 60 91 116 123 127 122 122 114 113 111 106 103 99 93 87 81 76 69 62 55 47 36 19 2 345 324 305 300 303 308 326 330 329
173 234 257 247 207 74 98 106 90 89 107 97 89 64 55 70 88 100 115 131 128 119 116 109 114 111 107 104 99 92 85 77 69 61 52 43 32 17 4 350 339 332 328 320 317 313 312 313 318
203 219 234 233 107 76 83 107 117 123 117 91 104 96 80 69 91 111 125 132 127 122 117 111 115 113 109 104 97 90 84 73 63 56 48 39 24 9 358 347 338 329 323 315 312 309 298 294 301
229 248 228 173 99 91 88 111 155 150 121 117 111 100 96 92 105 121 131 133 130 124 118 115 114 113 109 104 98 92 84 73 63 53 44 36 23 9 359 345 337 327 322 320 317 309 302 292 288
226 241 232 152 107 103 108 137 173 162 122 123 124 108 98 119 126 129 132 131 125 122 122 119 119 111 104 100 94 86 77 65 57 50 40 31 19 8 358 347 339 331 322 316 309 306 302 297 292
254 245 235 134 125 117 98 130 168 150 130 112 119 112 119 135 133 137 136 132 126 125 124 120 124 129 126 106 88 78 70 63 52 41 33 23 16 3 351 341 337 327 319 308 305 301 299 300 291
272 253 196 167 132 104 102 133 115 131 91 93 139 115 132 145 145 144 140 138 138 140 138 130 121 114 118 124 104 79 70 61 47 37 25 3 319 306 318 297 355 333 324 318 311 304 296 293 283
243 232 186 104 86 98 121 138 111 111 124 124 87 60 118 141 150 152 153 155 155 153 152 147 138 122 113 101 109 127 118 86 245 134 75 289 317 344 294 18 355 336 331 325 317 308 298 282 243
224 227 107 57 51 88 126 127 139 165 154 152 125 112 132 151 161 166 169 166 165 164 162 159 160 154 150 126 123 125 62 55 337 359 351 331 348 344 331 76 349 338 323 285 292 289 262 259 257
208 209 110 91 77 102 169 154 178 198 173 153 148 146 152 165 172 177 176 169 164 164 165 173 177 170 167 157 149 17 356 359 339 351 342 326 324 320 323 329 299 297 288 297 282 261 271 282 286
179 120 120 89 117 207 206 170 175 230 98 113 138 152 162 173 179 183 181 173 171 176 178 179 192 180 179 172 123 264 328 342 350 347 337 335 335 325 346 325 341 325 322 323 305 295 291 287 274
181 132 113 120 133 222 224 213 239 237 188 147 146 160 173 180 181 184 184 181 182 184 191 188 193 195 180 155 227 271 345 338 355 348 328 336 328 330 339 327 333 324 328 314 304 297 308 294 288
147 141 150 149 148 193 223 221 203 156 146 151 156 169 182 185 187 187 194 195 195 194 190 177 189 189 201 193 209 325 344 353 334 345 342 337 335 330 326 324 331 328 328 330 311 303 300 283 284
162 165 148 133 160 198 246 190 155 127 147 157 166 173 183 192 197 202 199 201 199 193 189 178 184 190 199 214 233 278 299 334 345 350 336 339 339 327 326 327 328 333 325 315 312 312 297 285 276
182 192 163 125 139 135 252 131 92 119 165 175 176 177 193 202 209 209 206 205 198 194 188 180 183 188 186 199 223 224 276 332 337 344 337 335 335 335 330 327 329 327 319 315 314 308 298 287 285
182 178 152 130 125 163 242 95 82 111 197 197 190 192 201 206 215 213 213 209 201 197 193 186 185 186 180 182 196 221 261 308 322 336 346 332 337 332 330 328 325 324 321 321 318 323 308 304 302
165 156 147 127 117 203 200 336 49 105 212 208 195 204 208 213 217 213 209 205 199 197 195 186 180 187 172 176 195 188 227 265 317 337 349 337 330 335 330 319 326 328 326 326 322 319 308 300 288
153 151 123 96 104 217 108 47 51 76 138 180 199 216 236 232 219 206 202 196 193 194 195 187 186 178 177 176 199 212 208 244 278 321 342 322 323 328 329 321 332 327 331 329 327 322 310 300 304
157 137 113 106 103 165 99 96 78 76 73 51 1 328 304 279 218 190 198 193 196 192 195 190 189 183 183 182 194 213 243 271 308 285 284 308 320 325 322 323 317 321 319 323 329 327 315 314 301
124 119 114 116 132 151 161 117 93 84 79 69 46 17 13 354 279 175 191 196 197 196 193 192 189 183 185 183 183 182 191 231 219 231 267 301 312 319 322 324 319 322 319 334 328 324 322 316 310
111 91 133 160 167 114 188 114 82 72 76 59 43 28 13 4 356 175 189 196 202 195 192 194 188 188 185 187 200 209 237 267 296 298 284 274 289 313 314 313 313 319 325 327 323 338 317 305 305
96 130 160 172 153 130 95 116 92 70 56 41 33 25 17 10 2 2 196 200 197 185 186 192 185 188 187 195 197 223 241 267 277 273 267 285 297 300 305 307 308 314 320 325 328 330 322 313 312
144 167 158 175 179 116 56 102 87 51 25 19 22 23 21 19 23 27 41 76 142 167 177 182 185 186 186 198 208 223 242 253 263 264 278 278 276 283 294 294 298 306 317 320 322 319 318 318 320
215 209 171 163 153 103 73 87 78 47 27 17 15 19 24 27 32 37 38 49 94 161 183 184 188 189 192 202 214 223 235 247 254 264 261 275 287 286 304 289 293 304 311 313 312 305 310 303 304
188 278 250 148 136 124 136 105 84 51 38 31 32 34 35 36 35 36 32 31 41 138 188 193 196 198 198 210 218 225 228 242 256 261 273 273 287 298 301 287 288 294 294 291 291 294 303 303 294
162 77 3 96 125 137 118 115 106 51 47 41 39 40 38 35 34 34 33 32 31 28 249 213 204 208 210 220 225 228 232 240 250 255 259 269 275 279 278 273 272 277 275 278 278 287 298 292 295
10 90 206 197 160 142 137 125 74 34 29 31 34 34 33 32 33 34 33 31 32 34 30 336 226 228 225 228 232 234 240 240 248 256 258 264 269 268 264 269 267 266 261 256 265 277 294 280 265
144 150 113 89 321 187 153 109 47 38 29 30 35 34 32 31 31 30 29 29 29 34 40 38 332 259 248 243 238 236 238 241 244 248 256 258 261 256 258 262 269 268 261 251 238 257 264 272 271
0 30 255 216 129 309 140 102 71 62 47 37 37 38 36 34 32 31 27 28 27 24 20 17 359 317 279 262 252 247 247 244 247 250 254 257 258 259 260 260 261 262 260 256 250 247 251 259 270